EW5297 Weather Reports


Display with metric or nautical units.
time (UTC)temp
F
wind
direction
speed
MPH
gust
MPH
rain 1hr
in
rain 24hr
in
rain mn
in
humidity
%
barometer
mb
20200814211829 57 142 0.0 0.0 0.00 1.50 0.06 97 1009.8
20200814210826 57 142 0.0 0.0 0.00 1.50 0.06 97 1009.6
20200814205828 57 142 0.0 0.0 0.00 1.50 0.06 97 1009.3
20200814205322 57 142 0.0 0.0 0.00 1.50 0.06 97 1009.3
20200814204816 57 142 0.0 0.0 0.00 1.50 0.06 97 1009.1
20200814204327 57 142 0.0 0.0 0.00 1.50 0.06 97 1009.1
20200814203820 57 142 0.0 0.0 0.00 1.50 0.06 97 1008.9
20200814203315 57 142 0.0 0.0 0.00 1.50 0.06 97 1008.9
20200814202311 58 142 0.0 0.0 0.00 1.50 0.06 97 1008.7
20200814201826 58 142 0.0 0.0 0.00 1.50 0.06 97 1008.7
20200814201323 58 142 0.0 0.0 0.00 1.50 0.06 97 1008.7
20200814200815 58 142 0.0 0.0 0.00 1.50 0.06 97 1008.6
20200814200329 58 142 0.0 0.0 0.00 1.50 0.06 97 1008.5
20200814195821 58 142 0.0 0.0 0.00 1.50 0.06 97 1008.6
20200814195313 58 142 0.0 0.0 0.00 1.50 0.06 96 1008.5
20200814194826 58 142 0.0 0.0 0.00 1.50 0.06 96 1008.5
20200814194318 58 142 0.0 1.0 0.00 1.50 0.06 97 1008.6
20200814193812 58 142 0.0 1.0 0.00 1.50 0.06 96 1008.5
20200814193329 58 263 0.0 0.0 0.00 1.50 0.06 96 1008.6
20200814192822 58 263 0.0 0.0 0.00 1.50 0.06 96 1008.5
20200814192315 58 263 0.0 0.0 0.00 1.50 0.06 96 1008.5
20200814191828 58 263 0.0 0.0 0.00 1.50 0.06 96 1008.6
20200814191320 58 263 0.0 0.0 0.04 1.50 0.06 95 1008.3
20200814190814 58 263 0.0 0.0 0.04 1.50 0.06 95 1008.2
20200814190326 59 263 0.0 0.0 0.04 1.50 0.06 95 1008.1
20200814185820 59 263 0.0 0.0 0.08 1.50 0.06 94 1008.0
20200814185318 59 263 0.0 0.0 0.08 1.50 0.06 94 1007.9
20200814184831 59 263 0.0 0.0 0.12 1.50 0.06 94 1008.0
20200814184324 59 244 0.0 10.0 0.12 1.50 0.06 94 1007.8
20200814183817 59 337 3.0 10.0 0.16 1.50 0.06 94 1007.8
20200814183331 59 303 2.0 8.0 0.16 1.50 0.06 94 1007.9
20200814182824 59 340 0.0 11.0 0.20 1.50 0.06 94 1008.2
20200814182318 59 343 3.0 11.0 0.20 1.50 0.06 94 1008.2
20200814181815 59 333 7.0 11.0 0.20 1.50 0.06 95 1008.3
20200814181329 59 323 3.0 11.0 0.16 1.46 0.05 96 1008.2
20200814180822 59 326 5.0 11.0 0.16 1.46 0.05 96 1008.2
20200814175818 58 314 2.0 9.0 0.12 1.42 0.04 97 1007.9
20200814175331 58 321 1.0 9.0 0.16 1.42 0.04 97 1007.6
20200814174826 58 316 2.0 8.0 0.12 1.38 0.03 97 1007.8
20200814174319 58 314 0.0 9.0 0.12 1.38 0.03 97 1007.6
20200814173812 58 317 0.0 9.0 0.12 1.34 0.02 97 1007.8
20200814173326 58 324 0.0 4.0 0.12 1.34 0.02 97 1008.2
20200814172822 58 319 1.0 4.0 0.08 1.30 0.02 97 1008.2
20200814172316 58 327 0.0 2.0 0.08 1.30 0.02 97 1008.2
20200814171832 58 330 0.0 2.0 0.08 1.30 0.02 97 1008.3
20200814171324 58 325 0.0 2.0 0.08 1.30 0.02 97 1008.2
20200814170817 58 316 0.0 0.0 0.08 1.30 0.02 97 1008.2
20200814170329 58 316 0.0 2.0 0.08 1.30 0.02 97 1008.4
20200814165822 58 316 0.0 3.0 0.08 1.30 0.02 97 1008.2
20200814165319 58 333 0.0 3.0 0.04 1.26 0.01 98 1008.4
20200814164815 58 284 0.0 3.0 0.04 1.26 0.01 97 1008.6
20200814164327 58 303 0.0 0.0 0.04 1.26 0.01 97 1008.5
20200814163820 58 303 0.0 0.0 0.00 1.22 0.00 97 1008.8
20200814163315 58 302 0.0 0.0 0.00 1.22 0.00 97 1008.9
20200814162828 58 302 0.0 0.0 0.00 1.22 0.00 97 1008.9
20200814162321 58 302 0.0 0.0 0.00 1.22 0.00 97 1008.6
20200814161815 58 302 0.0 0.0 0.00 1.22 0.00 97 1008.6
20200814161311 58 302 0.0 0.0 0.00 1.22 0.00 97 1008.7
20200814160824 58 302 0.0 0.0 0.00 1.22 0.00 97 1008.7
20200814160316 58 302 0.0 0.0 0.00 1.22 0.00 97 1008.8
20200814155810 58 298 0.0 0.0 0.00 1.22 0.00 97 1008.9
20200814155323 59 298 0.0 0.0 0.00 1.22 0.00 97 1009.0
20200814154817 59 298 0.0 0.0 0.00 1.22 0.00 97 1009.1
20200814154329 59 298 0.0 0.0 0.00 1.22 0.00 97 1009.2
20200814153822 59 298 0.0 0.0 0.00 1.22 0.00 97 1009.4
20200814153321 59 297 0.0 0.0 0.00 1.22 0.00 97 1009.4
20200814152814 59 298 0.0 0.0 0.00 1.22 0.00 97 1009.3
20200814152327 59 294 0.0 0.0 0.00 1.22 0.00 97 1009.3
20200814151822 59 336 0.0 0.0 0.00 1.22 0.00 97 1009.2
20200814151315 59 336 0.0 0.0 0.00 1.22 0.00 97 1009.5
20200814150829 59 336 0.0 0.0 0.00 1.22 0.00 97 1009.8
20200814150323 60 336 0.0 0.0 0.00 1.22 0.00 97 1009.9
20200814145821 60 337 0.0 0.0 0.00 1.26 0.00 97 1009.8
20200814145315 60 337 0.0 0.0 0.00 1.26 0.00 97 1009.7
20200814144829 60 337 0.0 0.0 0.00 1.26 0.00 97 1010.0
20200814144322 60 329 0.0 0.0 0.00 1.26 0.00 97 1010.2
20200814143815 61 331 0.0 0.0 0.00 1.26 0.00 97 1010.2
20200814143310 61 327 0.0 0.0 0.00 1.26 0.00 97 1010.5
20200814142823 61 309 0.0 0.0 0.00 1.26 0.00 96 1010.6
20200814142317 61 309 0.0 0.0 0.00 1.26 0.00 97 1010.6
20200814141816 61 309 0.0 0.0 0.00 1.26 0.00 97 1010.8
20200814141329 61 309 0.0 0.0 0.04 1.26 0.00 97 1011.0
20200814140821 61 309 0.0 5.0 0.04 1.26 0.00 96 1011.1
20200814140316 62 330 0.0 5.0 0.04 1.26 0.00 97 1011.1
20200814135827 62 350 0.0 0.0 0.04 1.26 0.25 97 1011.1
20200814135322 62 350 0.0 0.0 0.04 1.26 0.25 97 1011.0
20200814134817 62 350 0.0 1.0 0.08 1.26 0.25 97 1011.3
20200814134315 62 330 0.0 1.0 0.08 1.26 0.25 96 1011.2
20200814133829 63 332 0.0 0.0 0.08 1.26 0.25 97 1011.5
20200814133323 63 332 0.0 0.0 0.08 1.26 0.25 97 1011.3
20200814132815 63 332 0.0 0.0 0.08 1.26 0.25 97 1011.3
20200814132329 63 332 0.0 0.0 0.20 1.26 0.25 97 1011.3
20200814131823 63 332 0.0 0.0 0.51 1.26 0.25 97 1011.3
20200814131315 63 332 0.0 0.0 0.75 1.22 0.24 97 1011.4
20200814130810 63 332 0.0 0.0 0.91 1.22 0.24 97 1011.4
20200814130327 63 332 0.0 0.0 0.98 1.22 0.24 96 1011.6
20200814125823 63 332 0.0 0.0 0.98 1.22 0.24 96 1011.7
20200814125314 63 332 0.0 0.0 0.98 1.18 0.24 96 1011.8
20200814124829 63 332 0.0 0.0 1.02 1.18 0.24 96 1011.8
20200814124321 63 332 0.0 0.0 1.02 1.18 0.24 96 1012.0
20200814123815 63 332 0.0 0.0 1.06 1.18 0.24 96 1012.1
20200814123327 63 332 0.0 0.0 1.10 1.18 0.24 96 1012.1
20200814122820 63 332 0.0 0.0 1.10 1.18 0.24 96 1012.1
20200814122319 63 332 0.0 0.0 0.94 1.02 0.20 96 1012.0
20200814121811 63 332 0.0 0.0 0.59 0.67 0.13 95 1012.3
20200814121324 63 333 0.0 0.0 0.35 0.43 0.09 95 1012.6
20200814120818 64 333 0.0 0.0 0.24 0.31 0.06 95 1012.2
20200814120310 64 333 0.0 0.0 0.16 0.24 0.05 95 1012.1
20200814115327 64 333 0.0 0.0 0.12 0.20 0.04 94 1012.1
20200814114820 64 333 0.0 0.0 0.08 0.16 0.03 94 1012.0
20200814114313 64 333 0.0 0.0 0.08 0.16 0.03 93 1011.8
20200814113811 65 333 0.0 0.0 0.04 0.12 0.02 93 1012.0
20200814113326 65 333 0.0 0.0 0.00 0.08 0.02 92 1012.2
20200814112818 65 333 0.0 0.0 0.00 0.08 0.02 92 1012.1
20200814112312 65 333 0.0 0.0 0.00 0.08 0.02 91 1012.1
20200814111825 65 333 0.0 0.0 0.00 0.08 0.02 91 1012.3
20200814111316 66 333 0.0 0.0 0.00 0.08 0.02 91 1012.3
20200814110810 66 333 0.0 0.0 0.00 0.08 0.02 90 1012.4
20200814110324 66 333 0.0 0.0 0.00 0.08 0.02 89 1012.2
20200814105821 66 333 0.0 0.0 0.00 0.08 0.02 89 1012.2
20200814105314 66 333 0.0 4.0 0.00 0.08 0.02 89 1012.3
20200814104827 66 333 0.0 4.0 0.00 0.08 0.02 89 1012.3
20200814104319 66 40 0.0 0.0 0.00 0.08 0.02 89 1012.1
20200814103812 66 313 0.0 1.0 0.00 0.08 0.02 89 1012.2
20200814103326 66 313 0.0 8.0 0.00 0.08 0.02 90 1012.2
20200814102817 66 323 0.0 8.0 0.00 0.08 0.02 90 1012.2
20200814102314 66 318 0.0 0.0 0.00 0.08 0.02 90 1012.0
20200814101827 66 319 0.0 0.0 0.00 0.08 0.02 90 1012.1
20200814101320 66 322 0.0 0.0 0.00 0.08 0.02 90 1012.0
20200814100812 66 5 0.0 0.0 0.00 0.08 0.02 90 1011.9
20200814100326 65 323 0.0 0.0 0.00 0.08 0.02 90 1011.8
20200814095818 65 329 0.0 0.0 0.00 0.08 0.02 91 1011.7
20200814095311 65 317 0.0 0.0 0.00 0.08 0.02 91 1011.8
20200814094825 65 327 0.0 0.0 0.00 0.08 0.02 91 1011.9
20200814094323 65 316 0.0 0.0 0.00 0.08 0.02 91 1011.8
20200814093815 65 323 0.0 0.0 0.00 0.08 0.02 91 1011.9
20200814093329 65 309 0.0 2.0 0.00 0.08 0.02 91 1011.8
20200814092823 65 328 0.0 6.0 0.00 0.08 0.02 92 1011.8
20200814092317 65 274 0.0 6.0 0.00 0.08 0.02 93 1011.8
20200814091325 64 315 0.0 0.0 0.00 0.08 0.02 94 1011.6
20200814090820 64 290 0.0 0.0 0.00 0.08 0.02 94 1011.8
20200814090319 64 290 0.0 0.0 0.00 0.08 0.02 94 1011.8
20200814085829 64 289 0.0 0.0 0.00 0.08 0.02 93 1011.9
20200814085324 64 289 0.0 0.0 0.00 0.08 0.02 93 1011.8
20200814084817 64 289 0.0 0.0 0.00 0.08 0.02 92 1011.5
20200814084329 64 289 0.0 0.0 0.00 0.08 0.02 92 1011.8
20200814083823 64 289 0.0 0.0 0.00 0.08 0.02 92 1011.5
20200814083318 64 289 0.0 0.0 0.00 0.08 0.02 92 1011.6
20200814082815 64 289 0.0 0.0 0.00 0.08 0.02 91 1011.8
20200814082329 64 289 0.0 0.0 0.00 0.08 0.02 91 1011.9
20200814081821 64 289 0.0 0.0 0.00 0.08 0.02 90 1011.9
20200814081314 65 289 0.0 0.0 0.00 0.08 0.02 90 1011.9
20200814080828 65 289 0.0 0.0 0.00 0.08 0.02 89 1011.8
20200814080321 65 289 0.0 0.0 0.00 0.08 0.02 89 1011.9
20200814075814 66 289 0.0 0.0 0.00 0.08 0.02 88 1011.8
20200814075328 66 289 0.0 0.0 0.00 0.08 0.02 88 1011.7
20200814074826 66 289 0.0 0.0 0.00 0.08 0.02 87 1011.8
20200814074319 66 289 0.0 0.0 0.00 0.08 0.02 87 1011.9
20200814073813 67 289 0.0 0.0 0.00 0.08 0.02 86 1012.0
20200814073327 67 289 0.0 0.0 0.00 0.08 0.02 85 1011.9
20200814072821 67 289 0.0 0.0 0.00 0.08 0.02 85 1011.9
20200814072314 68 289 0.0 0.0 0.00 0.08 0.02 84 1011.8
20200814071826 68 289 0.0 0.0 0.00 0.08 0.02 83 1011.8
20200814071318 68 289 0.0 0.0 0.00 0.08 0.02 83 1011.7
20200814070816 68 289 0.0 3.0 0.00 0.08 0.02 82 1011.7
20200814070329 68 288 0.0 3.0 0.00 0.08 0.02 82 1011.7
20200814065821 69 132 0.0 6.0 0.00 0.08 0.02 82 1011.7
20200814065314 69 252 1.0 6.0 0.00 0.08 0.02 82 1011.7
20200814064829 69 286 0.0 0.0 0.00 0.08 0.02 82 1011.6
20200814064321 69 346 0.0 4.0 0.00 0.08 0.02 83 1011.6
20200814063815 69 51 1.0 4.0 0.00 0.08 0.02 82 1011.7
20200814063314 69 62 0.0 0.0 0.00 0.08 0.02 81 1011.7
20200814062826 69 281 0.0 0.0 0.00 0.08 0.02 83 1011.6
20200814062320 70 277 0.0 0.0 0.00 0.08 0.02 82 1011.8
20200814061815 70 275 0.0 0.0 0.00 0.08 0.02 82 1011.7
20200814061328 70 275 0.0 0.0 0.00 0.08 0.02 81 1011.6
20200814060822 70 56 0.0 0.0 0.00 0.08 0.02 81 1011.7
20200814060315 70 56 0.0 0.0 0.00 0.08 0.02 81 1011.7
20200814055829 70 13 0.0 4.0 0.00 0.08 0.02 81 1011.7
20200814055327 70 45 0.0 4.0 0.00 0.08 0.02 80 1011.8
20200814054821 70 69 1.0 8.0 0.00 0.08 0.02 79 1011.8
20200814054314 71 146 1.0 8.0 0.00 0.08 0.02 77 1011.6
20200814053826 72 58 3.0 8.0 0.00 0.08 0.02 76 1011.8
20200814053319 72 96 2.0 8.0 0.00 0.08 0.02 74 1011.8
20200814052813 74 58 0.0 6.0 0.00 0.08 0.02 69 1011.6
20200814052326 75 144 1.0 5.0 0.00 0.08 0.02 65 1011.7
20200814051820 76 45 0.0 4.0 0.00 0.08 0.02 58 1011.6
20200814050822 76 306 1.0 6.0 0.00 0.08 0.02 55 1011.4
20200814050316 76 306 1.0 6.0 0.00 0.08 0.02 55 1011.4
20200814045829 76 329 0.0 6.0 0.00 0.08 0.02 53 1011.4
20200814045322 76 325 1.0 6.0 0.00 0.08 0.02 58 1011.5
20200814044816 76 304 0.0 1.0 0.00 0.08 0.02 57 1011.5
20200814044329 76 304 0.0 5.0 0.00 0.08 0.02 54 1011.5
20200814043824 76 347 1.0 6.0 0.00 0.08 0.02 53 1011.6
20200814043316 76 315 2.0 8.0 0.00 0.08 0.02 51 1011.5
20200814042812 76 330 1.0 8.0 0.00 0.08 0.02 58 1011.8
20200814042325 76 317 2.0 4.0 0.00 0.08 0.02 53 1011.8
20200814041820 76 321 0.0 4.0 0.00 0.08 0.02 54 1012.1
20200814041312 75 340 0.0 8.0 0.00 0.08 0.02 58 1012.1
20200814040826 76 16 0.0 8.0 0.00 0.08 0.02 54 1012.3
20200814040319 76 321 0.0 2.0 0.00 0.08 0.02 57 1012.3
20200814035812 75 340 0.0 2.0 0.00 0.08 0.02 54 1012.3
20200814035325 75 350 0.0 2.0 0.00 0.08 0.02 58 1012.4
20200814034822 75 355 0.0 2.0 0.00 0.08 0.02 60 1012.3
20200814034315 74 344 0.0 2.0 0.00 0.08 0.02 57 1012.5
20200814033829 74 53 0.0 3.0 0.00 0.08 0.02 58 1012.5
20200814033322 75 59 1.0 3.0 0.00 0.08 0.02 59 1012.6
20200814032815 75 53 0.0 3.0 0.00 0.08 0.02 57 1012.6
20200814032328 75 213 0.0 5.0 0.00 0.08 0.02 56 1012.6
20200814031821 75 325 2.0 5.0 0.00 0.08 0.02 56 1012.6
20200814030817 75 304 1.0 6.0 0.00 0.08 0.02 58 1012.7
20200814030315 75 328 0.0 6.0 0.00 0.08 0.02 58 1012.6
20200814025829 74 348 0.0 4.0 0.00 0.08 0.02 62 1012.7
20200814025323 74 337 0.0 2.0 0.00 0.08 0.02 62 1012.8
20200814024816 74 54 0.0 2.0 0.00 0.08 0.02 63 1012.9
20200814024330 74 55 0.0 2.0 0.00 0.08 0.02 61 1013.0
20200814023823 74 55 0.0 3.0 0.00 0.08 0.02 59 1013.3
20200814023316 74 173 0.0 5.0 0.00 0.08 0.02 67 1013.4
20200814022814 73 307 2.0 8.0 0.00 0.08 0.02 64 1013.5
20200814022326 74 55 1.0 8.0 0.00 0.08 0.02 65 1013.7
20200814021820 73 318 0.0 3.0 0.00 0.08 0.02 68 1013.7
20200814021311 73 312 0.0 4.0 0.00 0.08 0.02 68 1013.7
20200814020824 73 334 0.0 4.0 0.00 0.08 0.02 68 1013.9
20200814020318 72 360 0.0 4.0 0.00 0.08 0.02 69 1014.0
20200814015811 72 50 2.0 4.0 0.00 0.08 0.02 68 1013.9
20200814015325 72 9 0.0 2.0 0.00 0.08 0.02 70 1014.0
20200814014823 72 56 0.0 3.0 0.00 0.08 0.02 73 1014.1
20200814013819 72 325 0.0 2.0 0.00 0.08 0.02 74 1014.5
20200814013312 71 72 0.0 4.0 0.04 0.08 0.02 74 1014.6
20200814012826 71 50 0.0 4.0 0.04 0.08 0.02 74 1014.6
20200814012320 71 57 1.0 3.0 0.04 0.08 0.02 75 1014.8
20200814011813 71 55 0.0 0.0 0.04 0.08 0.02 74 1014.7
20200814011327 70 61 0.0 1.0 0.04 0.08 0.02 76 1014.9
20200814010818 70 355 0.0 2.0 0.04 0.08 0.02 76 1014.9
20200814010315 70 58 0.0 2.0 0.04 0.08 0.02 76 1015.1
20200814005828 70 5 0.0 3.0 0.04 0.08 0.02 75 1015.1
20200814005321 69 360 1.0 5.0 0.04 0.08 0.02 76 1015.1
20200814004815 69 331 1.0 5.0 0.04 0.08 0.02 77 1015.1
20200814004327 69 311 1.0 4.0 0.04 0.08 0.02 80 1014.6
20200814003820 69 329 0.0 2.0 0.04 0.08 0.02 79 1015.2
20200814003314 68 346 0.0 0.0 0.00 0.04 0.01 80 1015.2
20200814002826 67 34 0.0 2.0 0.00 0.04 0.01 82 1015.0
20200814002323 67 60 0.0 2.0 0.00 0.04 0.01 84 1015.4
20200814001817 66 5 0.0 0.0 0.00 0.04 0.01 86 1015.8
20200814001329 65 142 0.0 0.0 0.00 0.04 0.01 86 1016.0
20200814000822 65 143 0.0 0.0 0.00 0.04 0.01 86 1016.2
20200814000315 64 142 0.0 0.0 0.00 0.04 0.01 87 1016.4
20200813235827 64 142 0.0 0.0 0.00 0.04 0.01 88 1016.3
20200813235320 63 140 0.0 0.0 0.00 0.04 0.01 90 1016.4
20200813234815 63 53 0.0 0.0 0.00 0.04 0.01 91 1016.3
20200813234312 62 147 0.0 0.0 0.00 0.04 0.01 90 1016.3
20200813233825 62 326 0.0 0.0 0.00 0.04 0.01 92 1016.3
20200813233318 61 326 0.0 0.0 0.00 0.04 0.01 93 1016.2
20200813232811 60 326 0.0 0.0 0.00 0.04 0.01 94 1016.1
20200813232324 60 326 0.0 0.0 0.00 0.04 0.01 96 1016.1
20200813231819 60 326 0.0 0.0 0.00 0.04 0.01 98 1016.4
20200813231312 59 326 0.0 0.0 0.00 0.04 0.01 98 1016.4
20200813230825 58 326 0.0 0.0 0.00 0.04 0.01 98 1016.3
20200813230323 58 326 0.0 0.0 0.00 0.04 0.01 98 1016.2
20200813225817 57 326 0.0 0.0 0.00 0.04 0.01 99 1016.2
20200813225330 57 326 0.0 0.0 0.00 0.04 0.01 99 1016.3
20200813224823 56 326 0.0 0.0 0.00 0.04 0.01 99 1016.3
20200813224316 56 326 0.0 0.0 0.00 0.04 0.01 99 1016.4
20200813223829 55 326 0.0 0.0 0.00 0.04 0.01 99 1016.6
20200813223325 55 326 0.0 0.0 0.00 0.04 0.01 99 1016.6
20200813222822 54 326 0.0 0.0 0.00 0.04 0.01 99 1016.7
20200813222316 54 326 0.0 0.0 0.00 0.04 0.01 99 1016.7
20200813221830 53 326 0.0 0.0 0.00 0.04 0.01 99 1016.6
20200813221323 53 326 0.0 0.0 0.00 0.04 0.01 99 1017.0
20200813220817 53 326 0.0 0.0 0.00 0.04 0.01 99 1017.1
20200813220329 52 326 0.0 0.0 0.00 0.04 0.01 98 1017.1
20200813215821 52 326 0.0 0.0 0.00 0.04 0.01 98 1017.2
20200813215316 52 326 0.0 0.0 0.00 0.04 0.01 98 1017.1
20200813214814 52 326 0.0 0.0 0.00 0.04 0.01 99 1017.0
20200813214327 52 326 0.0 0.0 0.00 0.04 0.01 98 1016.9
20200813213822 52 326 0.0 0.0 0.00 0.04 0.01 99 1016.8
20200813213313 51 326 0.0 0.0 0.00 0.04 0.01 98 1016.6
20200813212825 51 326 0.0 0.0 0.00 0.04 0.01 99 1016.5
20200813212320 50 326 0.0 0.0 0.00 0.04 0.01 99 1016.6